User: anonymous   Login
Location: Unspecified
(0.0000°N, 0.0000°E)
Time: 06:54:43
(UTC+02:00)
Language:

GP-B - Orbit

View from above orbital plane
View from above orbital plane
View from above satellite
View from above satellite

Ground track
Ground track

The orbit data is extracted from the following two-line orbital elements,

1 28230U 04014A   16242.52226939  .00000188  00000-0  23604-4 0  9993
2 28230  89.8592 127.4251 0003294  96.9210 263.2387 14.78454877666009
Epoch (UTC): 29 August 2016 12:32:04
Eccentricity: 0.0003294
inclination: 89.8592°
perigee height: 632 km
apogee height: 636 km
right ascension of ascending node: 127.4251°
argument of perigee: 96.9210°
revolutions per day: 14.78454877
mean anomaly at epoch: 263.2387°
orbit number at epoch: 66600

The dashed part of the orbit path shows where the satellite is in the earth's shadow,  

DLR